TimeEDT,TemperatureF,Dew PointF,Humidity,Sea Level PressureIn,VisibilityMPH,Wind Direction,Wind SpeedMPH,Gust SpeedMPH,PrecipitationIn,Events,Conditions,WindDirDegrees,DateUTC
12:33 AM,64.4,62.6,94,29.96,9.0,Calm,Calm,-,N/A,,Scattered Clouds,0,2013-08-29 04:33:00
12:54 AM,64.9,63.0,93,29.90,7.0,NNE,4.6,-,N/A,,Mostly Cloudy,30,2013-08-29 04:54:00
1:09 AM,64.4,64.4,100,29.98,10.0,NE,4.6,-,N/A,,Overcast,50,2013-08-29 05:09:00
1:23 AM,64.4,62.6,94,29.98,10.0,Calm,Calm,-,N/A,,Mostly Cloudy,0,2013-08-29 05:23:00
1:54 AM,64.0,62.1,93,29.89,9.0,East,3.5,-,N/A,,Mostly Cloudy,90,2013-08-29 05:54:00
2:54 AM,64.0,61.0,90,29.88,10.0,NE,5.8,-,N/A,,Partly Cloudy,50,2013-08-29 06:54:00
3:54 AM,63.0,60.1,90,29.89,10.0,NNE,4.6,-,N/A,,Clear,30,2013-08-29 07:54:00
4:54 AM,62.1,60.1,93,29.91,10.0,Calm,Calm,-,N/A,,Clear,0,2013-08-29 08:54:00
5:54 AM,60.1,59.0,96,29.95,10.0,Calm,Calm,-,N/A,,Mostly Cloudy,0,2013-08-29 09:54:00
6:10 AM,62.6,60.8,94,30.01,10.0,Calm,Calm,-,N/A,,Overcast,0,2013-08-29 10:10:00
6:43 AM,62.6,60.8,94,30.03,10.0,Calm,Calm,-,N/A,,Overcast,0,2013-08-29 10:43:00
6:54 AM,63.0,61.0,93,29.97,10.0,Calm,Calm,-,N/A,,Overcast,0,2013-08-29 10:54:00
7:01 AM,62.6,60.8,94,30.04,10.0,ENE,3.5,-,N/A,,Overcast,70,2013-08-29 11:01:00
7:54 AM,64.0,60.1,87,29.99,10.0,East,4.6,-,N/A,,Overcast,80,2013-08-29 11:54:00
8:54 AM,64.0,60.1,87,30.01,10.0,NNE,6.9,-,N/A,,Overcast,30,2013-08-29 12:54:00
9:33 AM,66.2,60.8,83,30.06,10.0,NNE,5.8,-,N/A,,Overcast,30,2013-08-29 13:33:00
9:46 AM,66.2,60.8,83,30.07,10.0,NE,8.1,-,N/A,,Overcast,50,2013-08-29 13:46:00
9:54 AM,66.9,61.0,81,30.00,10.0,NE,5.8,-,N/A,,Overcast,40,2013-08-29 13:54:00
10:16 AM,68.0,60.8,78,30.07,10.0,Variable,4.6,-,N/A,,Overcast,0,2013-08-29 14:16:00
10:34 AM,69.8,62.6,78,30.07,10.0,ENE,8.1,-,N/A,,Overcast,60,2013-08-29 14:34:00
10:54 AM,70.0,61.0,73,30.00,10.0,ENE,9.2,-,N/A,,Overcast,60,2013-08-29 14:54:00
11:20 AM,71.6,60.8,69,30.07,10.0,Variable,5.8,-,N/A,,Overcast,0,2013-08-29 15:20:00
11:54 AM,71.1,61.0,70,30.00,10.0,ENE,6.9,-,N/A,,Overcast,60,2013-08-29 15:54:00
12:38 PM,71.6,62.6,73,30.06,10.0,NE,5.8,-,N/A,,Overcast,50,2013-08-29 16:38:00
12:54 PM,72.0,62.1,71,29.99,10.0,Variable,4.6,-,N/A,,Overcast,0,2013-08-29 16:54:00
1:20 PM,71.6,60.8,69,30.06,10.0,Variable,4.6,-,N/A,,Overcast,0,2013-08-29 17:20:00
1:54 PM,73.0,61.0,66,29.98,10.0,Calm,Calm,-,N/A,,Overcast,0,2013-08-29 17:54:00
2:09 PM,71.6,60.8,69,30.05,10.0,SE,3.5,-,N/A,,Overcast,130,2013-08-29 18:09:00
2:40 PM,71.6,62.6,73,30.04,10.0,ESE,3.5,-,N/A,,Overcast,120,2013-08-29 18:40:00
2:54 PM,72.0,61.0,68,29.98,10.0,Calm,Calm,-,N/A,,Overcast,0,2013-08-29 18:54:00
3:54 PM,73.9,62.1,66,29.96,10.0,ENE,5.8,-,N/A,,Overcast,60,2013-08-29 19:54:00
4:54 PM,73.9,62.1,66,29.96,10.0,Variable,4.6,-,N/A,,Partly Cloudy,0,2013-08-29 20:54:00
5:54 PM,73.0,61.0,66,29.97,10.0,ENE,5.8,-,N/A,,Clear,60,2013-08-29 21:54:00
6:51 PM,69.8,62.6,78,30.03,10.0,East,4.6,-,N/A,,Mostly Cloudy,100,2013-08-29 22:51:00
6:54 PM,69.1,62.1,78,29.97,10.0,ESE,5.8,-,N/A,,Mostly Cloudy,110,2013-08-29 22:54:00
7:02 PM,68.0,62.6,83,30.03,10.0,East,3.5,-,N/A,,Partly Cloudy,90,2013-08-29 23:02:00
7:54 PM,64.9,62.1,90,29.99,10.0,East,4.6,-,N/A,,Clear,90,2013-08-29 23:54:00
8:49 PM,64.4,60.8,88,30.06,10.0,ESE,4.6,-,N/A,,Mostly Cloudy,110,2013-08-30 00:49:00
8:54 PM,64.9,61.0,87,30.00,10.0,East,3.5,-,N/A,,Mostly Cloudy,100,2013-08-30 00:54:00
9:24 PM,64.4,62.6,94,30.06,9.0,Calm,Calm,-,N/A,,Overcast,0,2013-08-30 01:24:00
9:54 PM,63.0,61.0,93,29.99,8.0,Calm,Calm,-,N/A,,Overcast,0,2013-08-30 01:54:00
10:01 PM,64.4,60.8,88,30.05,9.0,Variable,3.5,-,N/A,,Overcast,0,2013-08-30 02:01:00
10:27 PM,64.4,60.8,88,30.05,9.0,ESE,4.6,-,N/A,,Overcast,110,2013-08-30 02:27:00
10:54 PM,64.0,61.0,90,29.99,9.0,East,3.5,-,N/A,,Overcast,100,2013-08-30 02:54:00
11:54 PM,64.0,61.0,90,29.98,10.0,Calm,Calm,-,N/A,,Overcast,0,2013-08-30 03:54:00